User: anonymous
Location: NJAA Observatory
(40.6819°N, 74.8979°W)
Time: 17:13:42
(UTC-04:00)
Language:

Cosmos 1328 Rocket - Orbit

View from above orbital plane
View from above orbital plane
View from above satellite
View from above satellite

Ground track
Ground track

The orbit data is extracted from the following two-line orbital elements,

1 12988U 81117B   14292.48282458  .00000691  00000-0  79622-4 0  1870
2 12988 082.5238 264.5441 0018889 172.4546 332.7274 14.84143637775656
Epoch (UTC): 19 October 2014 11:35:16
Eccentricity: 0.0018889
inclination: 82.5238°
perigee height: 603 km
apogee height: 629 km
right ascension of ascending node: 264.5441°
argument of perigee: 172.4546°
revolutions per day: 14.84143637
mean anomaly at epoch: 332.7274°
orbit number at epoch: 77565

The dashed part of the orbit path shows where the satellite is in the earth's shadow,  

DLR